Regional Weather Roundup
Issued by NWS

Home | Current Version | Previous Version | Graphics & Text | Print | Product List | Glossary On
Versions: 1 2 3 4 5 6 7 8 9 10 11 12 13 14 15 16 17 18 19 20 21 22 23 24 25 26 27 28 29 30 31 32 33 34 35 36 37 38 39 40 41 42 43 44 45 46 47 48 49 50
000
ASUS43 KLOT 272308
RWRIL

ILLINOIS REGIONAL WEATHER ROUNDUP
NATIONAL WEATHER SERVICE CHICAGO/ROMEOVILLE IL
600 PM CDT WED MAY 27 2015

NOTE: "FAIR" INDICATES FEW OR NO CLOUDS BELOW 12,000 FEET WITH NO
SIGNIFICANT WEATHER AND/OR OBSTRUCTIONS TO VISIBILITY.

* THESE STATIONS ARE NOT UNDER NWS QUALITY CONTROL. THEY ALSO MAY NOT
  REPORT WEATHER SUCH AS PRECIPITATION OR FOG.

ILZ001-002-007-009-015-016-024-280000-
NORTHWEST ILLINOIS

CITY           SKY/WX    TMP DP  RH WIND       PRES   REMARKS
MOLINE         SUNNY     79  56  45 NW8       30.05S HX  80
STERLING*      SUNNY     79  57  47 N8        30.06S HX  80
SAVANNA*       SUNNY     77  56  48 CALM      30.05S
$$

ILZ003-004-008-010-011-017-018-280000-
NORTH CENTRAL ILLINOIS

CITY           SKY/WX    TMP DP  RH WIND       PRES   REMARKS
ROCKFORD       MOSUNNY   76  55  48 NW10      30.06S
FREEPORT*      SUNNY     74  57  56 NW6       30.07S
ROCHELLE*      SUNNY     74  55  49 NW6       30.06S
DE KALB*       SUNNY     72  52  49 NW6       30.07S
PERU*          MOSUNNY   77  54  45 N7        30.07S
$$

ILZ005-006-012>014-019>023-280000-
NORTHEAST ILLINOIS

CITY           SKY/WX    TMP DP  RH WIND       PRES   REMARKS
CHICAGO-OHARE  MOSUNNY   74  53  48 N8        30.03R
CHICAGO-MIDWAY MOSUNNY   74  57  55 W10       30.04R
AURORA         SUNNY     74  53  48 N13       30.05R
LANSING*       SUNNY     73  50  43 NW9       30.04R
JOLIET*        SUNNY     76  57  51 N8        30.04S
WAUKEGAN       SUNNY     69  56  62 NE6       30.04R
DUPAGE AIRPORT SUNNY     74  56  53 NW10      30.04R
KANKAKEE*      MOSUNNY   76  57  51 NW10G18   30.04S
WHEELING       SUNNY     74  54  49 N8        30.05R
MORRIS*        SUNNY     76  54  46 N6        30.04R
ROMEOVILLE*    SUNNY     74  53  47 N10G16    30.04S
NORTHERLY ISL    N/A     72  52  49 NW9         N/A
$$

LMZ740>746-280000-
SOUTHERN LAKE MICHIGAN

STATION/POSITION SKY/WX   TEMP    WIND        PRES    VSBY  WAVE
                          AIR SEA DIR/SP/G                  HT/PER
                          (F)     (DEG/KT/KT) (MB)    (MI)  (FT/S)
SOUTHERN BUOY              47 38  280/  8/  8 1017.1          1
BURNHAM HARBOR             72     290/  6/ 13   N/A
BURNS HARBOR               61      60/  6/  8 1017.6R
MICHIGAN CITY 6N           55 53   10/  4/  6   N/A           1/ 3
ST. JOSEPH                 57 56  340/  4/  4   N/A           1/ 3
$$

ILZ025>027-034>036-040-047-049-050-058-095>099-280000-
WEST-CENTRAL ILLINOIS

CITY           SKY/WX    TMP DP  RH WIND       PRES   REMARKS
QUINCY         SUNNY     78  54  43 N8        30.08S
GALESBURG*     MOSUNNY   78  52  40 W3        30.07S
MACOMB*        SUNNY     78  56  47 NW6       30.09S
JACKSONVILLE*  MOSUNNY   78  59  52 NW6       30.08S
PITTSFIELD*    SUNNY     79  56  45 N7        30.09S HX  80
$$

ILZ028>032-037-038-041>044-048-051>054-059>061-280000-
CENTRAL ILLINOIS

CITY           SKY/WX    TMP DP  RH WIND       PRES   REMARKS
PONTIAC        SUNNY     78  57  49 NW12G17   30.06S
BLOOMINGTON    SUNNY     79  56  45 NW13      30.07S HX  80
DECATUR        MOSUNNY   78  58  49 NW10      30.07R
PEORIA         MOSUNNY   81  55  40 N6        30.06S HX  81
LACON*         SUNNY     77  55  47 N7        30.05S
LINCOLN*       SUNNY     79  56  45 N6        30.04S HX  80
SPRINGFIELD    SUNNY     80  58  46 NW9       30.07F HX  80
TAYLORVILLE    SUNNY     75  59  57 NW7       30.07R
$$

ILZ033-039-045-046-055>057-062-063-280000-
EAST-CENTRAL ILLINOIS

CITY           SKY/WX    TMP DP  RH WIND       PRES   REMARKS
CHAMPAIGN      MOSUNNY   80  57  45 W14G22    30.06R HX  80
DANVILLE*      MOSUNNY   79  59  50 W12       30.02R HX  80
RANTOUL*       SUNNY     79  57  47 NW12      30.06R HX  80
PARIS*         MOSUNNY   81  58  45 W12G21    30.05R HX  81
$$

ILZ079-100>102-280000-
SOUTHWEST ILLINOIS

CITY           SKY/WX    TMP DP  RH WIND       PRES   REMARKS
ALTON          MOSUNNY   81  59  47 W9        30.06  HX  81
BELLEVILLE     SUNNY     81  63  54 NW7       30.04S HX  82
CAHOKIA*       PTSUNNY   82  58  43 NW13      30.05S HX  82
SPARTA*        MOSUNNY   80  65  60 W3        30.06S HX  82
$$

ILZ064>066-069>071-074>076-080>082-084>086-088>090-092>094-280000-
SOUTH-CENTRAL ILLINOIS

CITY           SKY/WX    TMP DP  RH WIND       PRES   REMARKS
CARBONDALE     CLOUDY    79  68  69 S8        30.06F HX  81
CAIRO*         CLOUDY    75  68  79 S6        30.08S
EFFINGHAM*     PTSUNNY   81  57  44 W12       30.06S HX  81
MARION         PTSUNNY   79  68  69 MISG      30.07F HX  81
MT. VERNON     PTSUNNY   82  64  54 SW9       30.06F HX  84
CENTRALIA*     MOSUNNY   85  60  43 SW7       30.05F HX  84
SALEM*         PTSUNNY   81  61  49 SW8       30.06S HX  82
METROPOLIS*    CLOUDY    75  67  75 SW3       30.08S
$$

ILZ067-068-072-073-078-083-087-091-280000-
SOUTHEAST ILLINOIS

CITY           SKY/WX    TMP DP  RH WIND       PRES   REMARKS
LAWRENCEVILLE  PTSUNNY   81  61  50 SW10      30.06S HX  82
FLORA*         PTSUNNY   81  59  46 SW10      30.05F HX  81
FAIRFIELD*     PTSUNNY   80  62  53 SW7       30.05F HX  81
HARRISBURG*    CLOUDY    77  66  68 SW7       30.08S
ROBINSON*      PTSUNNY   82  55  40 W13       30.06S HX  81
CARMI*         CLOUDY    79  59  50 SW8       30.05F HX  80
$$

ABBREVIATIONS USED IN REMARKS
   TC - TEMPERATURE IN CELSIUS
  WCI - WIND CHILL INDEX
   HX - HEAT INDEX
  VSB - VISIBILITY
$$



USA.gov is the U.S. government's official web portal to all federal, state and local government web resources and services.